Location: Carrières
(48.9495°N, 2.0407°E)
Time: 18:05:22
(UTC+00:00)

Cosmos 1606 Rocket - Pass Details

Date: 27 June 2024
Orbit: 599 x 628 km, 82.5° (Epoch: 15 July)

Event Time Altitude Azimuth Distance (km) Brightness Sun altitude
Rises 02:09:33 0° 334° (NNW) 2,908 7.5 -11.8°
Reaches altitude 10° 02:12:34 10° 313° (NW) 1,989 6.3 -11.5°
Maximum altitude 02:15:07 15° 277° (W) 1,649 5.5 -11.3°
Enters shadow 02:17:18 11° 245° (WSW) 1,886 5.5 -11.1°
